This demonstration page uses our WeatherBlox Daily Observations layout. Learn more.

Left ArrowRight Arrow

39.08367, -84.50855

Hourly Observations for August 11, 2017

Temp ( °F °C ) Dew Point ( °F °C ) Humidity (%) Winds ( mph kmh ) Pressure ( in mb ) Visibility ( mi km ) Precip ( " mm )
12:53 am 00:53 Clear 62 16.7 62 16.7 100 100 N N/A 30.08 1019 9 14.48406 N/A
1:53 am 01:53 Clear 63 17.2 62 16.7 97 97 N N/A 30.07 1018 9 14.48406 N/A
2:53 am 02:53 Clear 63 17.2 62 16.7 97 97 N N/A 30.07 1018 8 12.87472 N/A
3:53 am 03:53 Clear 63 17.2 63 17.2 100 100 WSW 3 6 30.06 1018 7 11.26538 N/A
4:53 am 04:53 Clear with Mist and Fog 63 17.2 62 16.7 97 97 N N/A 30.05 1018 6 9.65604 N/A
5:41 am 05:41 Clear with Mist and Fog 61 16.1 61 16.1 100 100 N N/A 30.03 1017 2 3.21868 N/A
5:51 am 05:51 Clear with Mist and Fog 63 17 63 17 100 100 N N/A 30.03 1017 5 8.0467 N/A
5:53 am 05:53 Clear with Mist and Fog 62 16.7 62 16.7 100 100 N N/A 30.05 1018 5 8.0467 N/A
6:14 am 06:14 Clear with Mist and Fog 61 16.1 61 16.1 100 100 N N/A 30.03 1017 1.75 2.816345 N/A
6:33 am 06:33 Clear with Mist and Fog 62 16.7 62 16.7 100 100 N N/A 30.03 1017 3 4.82802 N/A
6:40 am 06:40 Clear with Mist and Fog 62 16.7 62 16.7 100 100 N N/A 30.03 1017 1.75 2.816345 N/A
6:50 am 06:50 Sunny with Fog 61 16 61 16 100 100 N N/A 30.03 1017 0.25 0.402335 N/A
6:53 am 06:53 Sunny with Patchy Fog 61 16.1 61 16.1 100 100 N N/A 30.05 1018 10 16.0934 N/A
7:01 am 07:01 Sunny with Patchy Fog 61 16.1 61 16.1 100 100 N N/A 30.03 1017 10 16.0934 N/A
7:53 am 07:53 Sunny with Patchy Fog 63 17.2 63 17.2 100 100 N N/A 30.05 1018 10 16.0934 N/A
8:53 am 08:53 Mostly Sunny 68 20 65 18.3 90 90 N N/A 30.05 1018 9 14.48406 N/A
9:53 am 09:53 Sunny 72 22.2 67 19.4 84 84 N N/A 30.04 1017 10 16.0934 N/A
10:53 am 10:53 Sunny 77 25 68 20 74 74 S 3 6 30.03 1017 10 16.0934 N/A
11:53 am 11:53 Sunny 81 27.2 68 20 65 65 S 5 7 30.02 1017 10 16.0934 N/A
12:53 pm 12:53 Partly Cloudy 81 27.2 67 19.4 62 62 S 7 11 30.01 1016 10 16.0934 N/A
1:53 pm 13:53 Mostly Cloudy 81 27.2 67 19.4 62 62 SW 9 15 30.03 1017 10 16.0934 N/A
2:53 pm 14:53 Sunny 82 27.8 66 18.9 58 58 SW 8 13 30.01 1016 10 16.0934 N/A
3:53 pm 15:53 Mostly Sunny 79 26.1 71 21.7 77 77 S 6 9 30 1016 10 16.0934 N/A
4:53 pm 16:53 Sunny 81 27.2 69 20.6 67 67 S 6 9 29.97 1015 10 16.0934 N/A
5:53 pm 17:53 Partly Cloudy 82 27.8 70 21.1 67 67 SSW 9 15 29.96 1015 10 16.0934 N/A
6:53 pm 18:53 Partly Cloudy 82 27.8 69 20.6 65 65 SW 7 11 29.95 1014 10 16.0934 N/A
7:53 pm 19:53 Sunny 78 25.6 69 20.6 74 74 SW 6 9 29.95 1014 10 16.0934 N/A
8:53 pm 20:53 Clear 73 22.8 68 20 84 84 S 6 9 29.95 1014 10 16.0934 N/A
9:53 pm 21:53 Mostly Clear 69 20.6 68 20 96 96 SSW 5 7 29.96 1015 8 12.87472 N/A
10:53 pm 22:53 Mostly Cloudy 71 21.7 69 20.6 94 94 N N/A 29.96 1015 8 12.87472 N/A
11:53 pm 23:53 Partly Cloudy with Mist and Fog 69 20.6 68 20 96 96 N N/A 29.95 1014 6 9.65604 N/A

Powered by AerisWeather